DAL22 KPHL-KRDU

Flight info

Callsign DAL22
Flight time 1h 2m
Altitude 36000
Route OOD TEBEE HAYDO TRPOD TAQLE3
Aircraft B738/M-SDE2E3FGHIRWXY/LB1

Departure

Time 2026-05-06 20:20
Airport Philadelphia International Airport (KPHL)

Arrival

Time 2026-05-06 21:23
Airport Raleigh-Durham International Airport (KRDU)
Time Latitude Longitude Altitude Speed Heading
2026-05-06 19:57 39.87488 -75.23796 19 ft 0 kts 354°
2026-05-06 20:10 39.87476 -75.23794 19 ft 2 kts 333°
2026-05-06 20:10 39.87465 -75.23779 21 ft 2 kts 272°
2026-05-06 20:10 39.87465 -75.23775 22 ft 0 kts 257°
2026-05-06 20:14 39.87464 -75.23780 21 ft 2 kts 257°
2026-05-06 20:14 39.87459 -75.23799 19 ft 4 kts 239°
2026-05-06 20:15 39.87420 -75.23831 19 ft 8 kts 214°
2026-05-06 20:15 39.87406 -75.23848 19 ft 0 kts 229°
2026-05-06 20:15 39.87374 -75.23877 19 ft 9 kts 198°
2026-05-06 20:15 39.87334 -75.23872 19 ft 9 kts 164°
2026-05-06 20:16 39.87276 -75.23849 19 ft 9 kts 165°
2026-05-06 20:16 39.87218 -75.23830 19 ft 8 kts 166°
2026-05-06 20:16 39.87164 -75.23806 20 ft 8 kts 159°
2026-05-06 20:16 39.87097 -75.23775 20 ft 13 kts 159°
2026-05-06 20:17 39.87003 -75.23733 17 ft 14 kts 162°
2026-05-06 20:17 39.86973 -75.23628 17 ft 14 kts 81°
2026-05-06 20:17 39.86995 -75.23510 15 ft 13 kts 76°
2026-05-06 20:17 39.87019 -75.23392 14 ft 13 kts 75°
2026-05-06 20:18 39.87015 -75.23340 16 ft 2 kts 128°
2026-05-06 20:18 39.86985 -75.23361 14 ft 2 kts 256°
2026-05-06 20:18 39.86985 -75.23380 14 ft 4 kts 278°
2026-05-06 20:18 39.86995 -75.23472 15 ft 17 kts 270°
2026-05-06 20:19 39.86972 -75.23628 17 ft 17 kts 255°
2026-05-06 20:19 39.86943 -75.23778 16 ft 17 kts 256°
2026-05-06 20:19 39.86908 -75.23918 18 ft 16 kts 229°
2026-05-06 20:19 39.86889 -75.23932 19 ft 5 kts 201°
2026-05-06 20:20 39.86796 -75.23965 16 ft 27 kts 238°
2026-05-06 20:20 39.86668 -75.24557 17 ft 113 kts 255°
2026-05-06 20:20 39.86424 -75.25826 394 ft 162 kts 255°
2026-05-06 20:20 39.86152 -75.27270 1582 ft 161 kts 248°
2026-05-06 20:21 39.85785 -75.28749 2433 ft 183 kts 250°
2026-05-06 20:21 39.85372 -75.30455 2838 ft 210 kts 251°
2026-05-06 20:21 39.84935 -75.32365 3376 ft 235 kts 253°
2026-05-06 20:21 39.84505 -75.34432 4282 ft 239 kts 255°
2026-05-06 20:22 39.84097 -75.36540 4810 ft 241 kts 255°
2026-05-06 20:22 39.83638 -75.38646 4981 ft 243 kts 253°
2026-05-06 20:22 39.83151 -75.40756 4982 ft 243 kts 253°
2026-05-06 20:22 39.82714 -75.42871 4996 ft 241 kts 258°
2026-05-06 20:23 39.82071 -75.44866 5007 ft 247 kts 230°
2026-05-06 20:23 39.80603 -75.46096 5709 ft 257 kts 206°
2026-05-06 20:23 39.78828 -75.46572 6577 ft 267 kts 187°
2026-05-06 20:23 39.76975 -75.46038 6917 ft 283 kts 162°
2026-05-06 20:24 39.75281 -75.44569 6990 ft 300 kts 146°
2026-05-06 20:24 39.73739 -75.42710 7185 ft 305 kts 142°
2026-05-06 20:24 39.72221 -75.40781 8107 ft 303 kts 143°
2026-05-06 20:24 39.70718 -75.38883 9215 ft 302 kts 145°
2026-05-06 20:25 39.69199 -75.37019 10111 ft 306 kts 146°
2026-05-06 20:25 39.67593 -75.35091 10622 ft 327 kts 146°
2026-05-06 20:25 39.65839 -75.33009 10859 ft 354 kts 146°
2026-05-06 20:25 39.63784 -75.31254 11379 ft 350 kts 168°
2026-05-06 20:26 39.61481 -75.30696 12171 ft 336 kts 188°
2026-05-06 20:26 39.59180 -75.30995 13011 ft 332 kts 196°
2026-05-06 20:26 39.56879 -75.31463 13775 ft 337 kts 197°
2026-05-06 20:26 39.54544 -75.31931 14442 ft 343 kts 196°
2026-05-06 20:27 39.52156 -75.32384 15082 ft 349 kts 195°
2026-05-06 20:27 39.49732 -75.32829 15746 ft 354 kts 195°
2026-05-06 20:27 39.47305 -75.33272 16429 ft 358 kts 195°
2026-05-06 20:27 39.44816 -75.33726 17113 ft 363 kts 195°
2026-05-06 20:28 39.42291 -75.34186 17768 ft 369 kts 195°
2026-05-06 20:28 39.39730 -75.34653 18387 ft 374 kts 195°
2026-05-06 20:28 39.37134 -75.35125 18998 ft 378 kts 196°
2026-05-06 20:28 39.34515 -75.35599 19642 ft 380 kts 196°
2026-05-06 20:29 39.31889 -75.36075 20220 ft 383 kts 197°
2026-05-06 20:29 39.29231 -75.36558 20817 ft 387 kts 197°
2026-05-06 20:29 39.26581 -75.37038 21407 ft 390 kts 198°
2026-05-06 20:29 39.23877 -75.37528 21982 ft 393 kts 198°
2026-05-06 20:30 39.21160 -75.38020 22519 ft 396 kts 198°
2026-05-06 20:30 39.15637 -75.39013 23562 ft 403 kts 198°
2026-05-06 20:30 39.12845 -75.39511 24020 ft 406 kts 198°
2026-05-06 20:31 39.10036 -75.40010 24456 ft 408 kts 198°
2026-05-06 20:31 39.07247 -75.40506 24900 ft 412 kts 198°
2026-05-06 20:31 39.04399 -75.41011 25330 ft 414 kts 198°
2026-05-06 20:31 39.01531 -75.41521 25755 ft 418 kts 199°
2026-05-06 20:32 38.98633 -75.42035 26161 ft 420 kts 199°
2026-05-06 20:32 38.95717 -75.42551 26565 ft 423 kts 199°
2026-05-06 20:32 38.92800 -75.43067 27062 ft 423 kts 199°
2026-05-06 20:32 38.89877 -75.43580 27544 ft 424 kts 199°
2026-05-06 20:33 38.86978 -75.44094 27775 ft 429 kts 199°
2026-05-06 20:33 38.84005 -75.44623 28042 ft 434 kts 199°
2026-05-06 20:33 38.81004 -75.45154 28401 ft 436 kts 199°
2026-05-06 20:33 38.77977 -75.45686 28784 ft 437 kts 199°
2026-05-06 20:34 38.74950 -75.46218 29131 ft 440 kts 199°
2026-05-06 20:34 38.71905 -75.46753 29454 ft 442 kts 199°
2026-05-06 20:34 38.68886 -75.47284 29803 ft 444 kts 199°
2026-05-06 20:34 38.65830 -75.47818 30232 ft 442 kts 199°
2026-05-06 20:35 38.62788 -75.48346 30791 ft 436 kts 199°
2026-05-06 20:35 38.59792 -75.48866 31286 ft 433 kts 199°
2026-05-06 20:35 38.56803 -75.49390 31664 ft 433 kts 199°
2026-05-06 20:35 38.53851 -75.49910 32005 ft 433 kts 199°
2026-05-06 20:36 38.50864 -75.50435 32416 ft 431 kts 199°
2026-05-06 20:36 38.47897 -75.50954 32870 ft 429 kts 199°
2026-05-06 20:36 38.44941 -75.51470 33289 ft 427 kts 199°
2026-05-06 20:36 38.41993 -75.51984 33586 ft 428 kts 199°
2026-05-06 20:37 38.39041 -75.52503 33852 ft 429 kts 199°
2026-05-06 20:37 38.36111 -75.53015 34175 ft 428 kts 199°
2026-05-06 20:37 38.33213 -75.53717 34463 ft 414 kts 210°
2026-05-06 20:37 38.30645 -75.55198 34718 ft 402 kts 217°
2026-05-06 20:38 38.28123 -75.56759 35019 ft 403 kts 216°
2026-05-06 20:38 38.25584 -75.58297 35275 ft 404 kts 216°
2026-05-06 20:38 38.23037 -75.59819 35542 ft 405 kts 216°
2026-05-06 20:38 38.20470 -75.61340 35698 ft 408 kts 216°
2026-05-06 20:39 38.17894 -75.62862 35880 ft 409 kts 216°
2026-05-06 20:39 38.12730 -75.65904 35899 ft 412 kts 216°
2026-05-06 20:40 38.07537 -75.68947 35892 ft 407 kts 216°
2026-05-06 20:40 38.02435 -75.71937 35909 ft 405 kts 217°
2026-05-06 20:41 37.97315 -75.74943 35906 ft 407 kts 216°
2026-05-06 20:41 37.92112 -75.78000 35920 ft 415 kts 216°
2026-05-06 20:42 37.86881 -75.81055 35902 ft 416 kts 216°
2026-05-06 20:42 37.81608 -75.84127 35895 ft 416 kts 216°
2026-05-06 20:43 37.76379 -75.87171 35890 ft 414 kts 216°
2026-05-06 20:43 37.71136 -75.90222 35898 ft 414 kts 216°
2026-05-06 20:44 37.65952 -75.93225 35876 ft 397 kts 216°
2026-05-06 20:44 37.63480 -75.94648 35826 ft 384 kts 217°
2026-05-06 20:44 37.61144 -75.96143 35570 ft 365 kts 226°
2026-05-06 20:44 37.59294 -75.98197 35047 ft 347 kts 239°
2026-05-06 20:45 37.57794 -76.00542 35007 ft 341 kts 240°
2026-05-06 20:45 37.56318 -76.02869 34895 ft 334 kts 240°
2026-05-06 20:45 37.54891 -76.05104 34874 ft 321 kts 240°
2026-05-06 20:45 37.53533 -76.07223 34861 ft 309 kts 240°
2026-05-06 20:46 37.52191 -76.09317 34619 ft 305 kts 240°
2026-05-06 20:46 37.50864 -76.11390 34249 ft 304 kts 239°
2026-05-06 20:46 37.49528 -76.13476 33984 ft 307 kts 239°
2026-05-06 20:47 37.46814 -76.17699 33572 ft 309 kts 239°
2026-05-06 20:47 37.45466 -76.19784 33030 ft 305 kts 239°
2026-05-06 20:47 37.44128 -76.21857 31978 ft 315 kts 238°
2026-05-06 20:47 37.42699 -76.24083 30558 ft 337 kts 236°
2026-05-06 20:48 37.41183 -76.26434 29192 ft 352 kts 236°
2026-05-06 20:48 37.39622 -76.28840 28145 ft 355 kts 235°
2026-05-06 20:48 37.38062 -76.31234 27409 ft 351 kts 236°
2026-05-06 20:48 37.36523 -76.33595 26923 ft 348 kts 236°
2026-05-06 20:49 37.35011 -76.35919 26481 ft 345 kts 236°
2026-05-06 20:49 37.33497 -76.38245 26035 ft 343 kts 236°
2026-05-06 20:49 37.31994 -76.40557 25612 ft 340 kts 237°
2026-05-06 20:49 37.30502 -76.42850 25200 ft 337 kts 237°
2026-05-06 20:50 37.29023 -76.45122 24775 ft 335 kts 237°
2026-05-06 20:50 37.27549 -76.47385 24346 ft 334 kts 237°
2026-05-06 20:50 37.26077 -76.49642 23966 ft 331 kts 237°
2026-05-06 20:50 37.24647 -76.51852 23829 ft 322 kts 237°
2026-05-06 20:51 37.23248 -76.54034 23742 ft 323 kts 237°
2026-05-06 20:51 37.21820 -76.56278 23640 ft 333 kts 237°
2026-05-06 20:51 37.20379 -76.58537 23525 ft 337 kts 237°
2026-05-06 20:51 37.18914 -76.60824 23383 ft 335 kts 237°
2026-05-06 20:52 37.17453 -76.63093 23278 ft 333 kts 238°
2026-05-06 20:52 37.16005 -76.65349 23162 ft 331 kts 238°
2026-05-06 20:52 37.14564 -76.67594 23051 ft 330 kts 237°
2026-05-06 20:52 37.13120 -76.69841 22959 ft 330 kts 237°
2026-05-06 20:53 37.11678 -76.72085 22855 ft 330 kts 237°
2026-05-06 20:53 37.10235 -76.74327 22755 ft 331 kts 237°
2026-05-06 20:53 37.08788 -76.76575 22659 ft 332 kts 237°
2026-05-06 20:53 37.07337 -76.78826 22562 ft 332 kts 237°
2026-05-06 20:54 37.05901 -76.81053 22465 ft 333 kts 237°
2026-05-06 20:54 37.04436 -76.83323 22364 ft 334 kts 237°
2026-05-06 20:54 37.02975 -76.85585 22256 ft 334 kts 237°
2026-05-06 20:54 37.01510 -76.87851 22163 ft 334 kts 237°
2026-05-06 20:55 37.00051 -76.90105 22045 ft 332 kts 237°
2026-05-06 20:55 36.98602 -76.92341 21921 ft 330 kts 236°
2026-05-06 20:55 36.97149 -76.94582 21718 ft 333 kts 235°
2026-05-06 20:55 36.95682 -76.96842 21499 ft 336 kts 235°
2026-05-06 20:56 36.94223 -76.99087 21272 ft 338 kts 235°
2026-05-06 20:56 36.92733 -77.01378 21037 ft 338 kts 235°
2026-05-06 20:56 36.91260 -77.03638 20793 ft 333 kts 235°
2026-05-06 20:56 36.89808 -77.05866 20553 ft 328 kts 235°
2026-05-06 20:57 36.88361 -77.08085 20337 ft 328 kts 235°
2026-05-06 20:57 36.86918 -77.10300 20111 ft 329 kts 235°
2026-05-06 20:57 36.85490 -77.12492 19885 ft 329 kts 235°
2026-05-06 20:57 36.84041 -77.14713 19655 ft 330 kts 234°
2026-05-06 20:58 36.82593 -77.16930 19429 ft 330 kts 234°
2026-05-06 20:58 36.81135 -77.19161 19196 ft 330 kts 234°
2026-05-06 20:58 36.79684 -77.21378 18971 ft 329 kts 234°
2026-05-06 20:58 36.78230 -77.23586 18728 ft 328 kts 235°
2026-05-06 20:59 36.76776 -77.25755 18494 ft 323 kts 236°
2026-05-06 20:59 36.75357 -77.27861 18269 ft 318 kts 236°
2026-05-06 20:59 36.73935 -77.29973 18022 ft 317 kts 236°
2026-05-06 20:59 36.72522 -77.32073 17784 ft 316 kts 236°
2026-05-06 21:00 36.71110 -77.34173 17558 ft 314 kts 236°
2026-05-06 21:00 36.69705 -77.36260 17345 ft 314 kts 236°
2026-05-06 21:00 36.68297 -77.38353 17117 ft 314 kts 236°
2026-05-06 21:00 36.66905 -77.40437 16919 ft 311 kts 239°
2026-05-06 21:01 36.66177 -77.42867 17006 ft 300 kts 259°
2026-05-06 21:01 36.65268 -77.45205 16984 ft 314 kts 234°
2026-05-06 21:01 36.63619 -77.47073 16984 ft 321 kts 226°
2026-05-06 21:01 36.61903 -77.48849 16988 ft 320 kts 226°
2026-05-06 21:02 36.60191 -77.50618 16987 ft 319 kts 226°
2026-05-06 21:02 36.58480 -77.52382 16988 ft 319 kts 226°
2026-05-06 21:02 36.57350 -77.53546 16979 ft 318 kts 225°
2026-05-06 21:02 36.55551 -77.55169 16971 ft 327 kts 211°
2026-05-06 21:03 36.53431 -77.56256 16993 ft 330 kts 207°
2026-05-06 21:03 36.51129 -77.56786 17013 ft 341 kts 191°
2026-05-06 21:03 36.48897 -77.57425 16550 ft 321 kts 214°
2026-05-06 21:03 36.47278 -77.59181 15869 ft 304 kts 242°
2026-05-06 21:04 36.46530 -77.61542 15257 ft 293 kts 257°
2026-05-06 21:04 36.45861 -77.63939 14576 ft 295 kts 250°
2026-05-06 21:04 36.44940 -77.66244 13862 ft 299 kts 246°
2026-05-06 21:04 36.43970 -77.68517 13227 ft 296 kts 246°
2026-05-06 21:05 36.43019 -77.70727 13005 ft 288 kts 246°
2026-05-06 21:05 36.42078 -77.72928 12781 ft 291 kts 246°
2026-05-06 21:05 36.41125 -77.75171 12563 ft 296 kts 246°
2026-05-06 21:05 36.40161 -77.77447 12334 ft 298 kts 246°
2026-05-06 21:06 36.39196 -77.79728 12106 ft 298 kts 245°
2026-05-06 21:06 36.38234 -77.82005 11911 ft 298 kts 245°
2026-05-06 21:06 36.37273 -77.84281 11690 ft 298 kts 245°
2026-05-06 21:06 36.36311 -77.86564 11456 ft 298 kts 246°
2026-05-06 21:07 36.35350 -77.88842 11251 ft 298 kts 246°
2026-05-06 21:07 36.34402 -77.91088 11028 ft 298 kts 246°
2026-05-06 21:07 36.33440 -77.93366 10813 ft 298 kts 245°
2026-05-06 21:07 36.32480 -77.95638 10594 ft 297 kts 245°
2026-05-06 21:08 36.31529 -77.97889 10377 ft 291 kts 245°
2026-05-06 21:08 36.30599 -78.00086 10160 ft 284 kts 245°
2026-05-06 21:08 36.29687 -78.02239 9962 ft 278 kts 245°
2026-05-06 21:08 36.28811 -78.04303 9936 ft 265 kts 245°
2026-05-06 21:09 36.27947 -78.06341 9584 ft 265 kts 244°
2026-05-06 21:09 36.27110 -78.08315 9362 ft 259 kts 244°
2026-05-06 21:09 36.26280 -78.10273 9168 ft 254 kts 245°
2026-05-06 21:09 36.25458 -78.12211 8976 ft 253 kts 244°
2026-05-06 21:10 36.24638 -78.14143 8786 ft 252 kts 244°
2026-05-06 21:10 36.23819 -78.16070 8604 ft 252 kts 244°
2026-05-06 21:10 36.23005 -78.17988 8405 ft 251 kts 245°
2026-05-06 21:10 36.22190 -78.19903 8219 ft 250 kts 245°
2026-05-06 21:11 36.21380 -78.21806 8028 ft 248 kts 244°
2026-05-06 21:11 36.20586 -78.23670 7848 ft 246 kts 245°
2026-05-06 21:11 36.19788 -78.25543 7661 ft 244 kts 245°
2026-05-06 21:11 36.18998 -78.27395 7488 ft 242 kts 244°
2026-05-06 21:12 36.18215 -78.29231 7310 ft 240 kts 245°
2026-05-06 21:12 36.17439 -78.31050 7134 ft 238 kts 244°
2026-05-06 21:12 36.16667 -78.32858 6950 ft 236 kts 244°
2026-05-06 21:12 36.15902 -78.34652 6778 ft 234 kts 244°
2026-05-06 21:13 36.15147 -78.36417 6605 ft 229 kts 244°
2026-05-06 21:13 36.14408 -78.38144 6441 ft 225 kts 244°
2026-05-06 21:13 36.13683 -78.39837 6266 ft 221 kts 244°
2026-05-06 21:13 36.12978 -78.41481 6103 ft 216 kts 244°
2026-05-06 21:14 36.12282 -78.43098 5958 ft 210 kts 243°
2026-05-06 21:14 36.11595 -78.44660 5843 ft 203 kts 243°
2026-05-06 21:14 36.10925 -78.46178 5734 ft 198 kts 243°
2026-05-06 21:14 36.10267 -78.47668 5634 ft 197 kts 242°
2026-05-06 21:15 36.09611 -78.49156 5548 ft 197 kts 243°
2026-05-06 21:15 36.08954 -78.50643 5437 ft 197 kts 243°
2026-05-06 21:15 36.08298 -78.52128 5332 ft 197 kts 242°
2026-05-06 21:15 36.07641 -78.53614 5231 ft 196 kts 242°
2026-05-06 21:16 36.06986 -78.55095 5143 ft 196 kts 242°
2026-05-06 21:16 36.06329 -78.56540 5030 ft 193 kts 237°
2026-05-06 21:16 36.05434 -78.57765 4805 ft 190 kts 229°
2026-05-06 21:16 36.04529 -78.58961 4544 ft 190 kts 229°
2026-05-06 21:17 36.03607 -78.60157 4287 ft 193 kts 227°
2026-05-06 21:17 36.02666 -78.61339 4036 ft 190 kts 226°
2026-05-06 21:17 36.01748 -78.62480 3797 ft 184 kts 225°
2026-05-06 21:17 36.00857 -78.63584 3550 ft 177 kts 225°
2026-05-06 21:18 36.00015 -78.64626 3335 ft 170 kts 225°
2026-05-06 21:18 35.99231 -78.65597 3144 ft 148 kts 225°
2026-05-06 21:18 35.98554 -78.66435 2971 ft 127 kts 224°
2026-05-06 21:18 35.97913 -78.67229 2785 ft 128 kts 224°
2026-05-06 21:19 35.97299 -78.67989 2617 ft 123 kts 224°
2026-05-06 21:19 35.96683 -78.68753 2467 ft 128 kts 224°
2026-05-06 21:19 35.96048 -78.69543 2306 ft 132 kts 224°
2026-05-06 21:19 35.95401 -78.70344 2110 ft 129 kts 224°
2026-05-06 21:20 35.94782 -78.71108 1943 ft 123 kts 223°
2026-05-06 21:20 35.94172 -78.71863 1797 ft 124 kts 223°
2026-05-06 21:20 35.93573 -78.72607 1620 ft 121 kts 224°
2026-05-06 21:20 35.92929 -78.73406 1469 ft 135 kts 224°
2026-05-06 21:21 35.92278 -78.74214 1279 ft 129 kts 224°
2026-05-06 21:21 35.91659 -78.74983 1111 ft 123 kts 223°
2026-05-06 21:21 35.91064 -78.75729 984 ft 122 kts 227°
2026-05-06 21:21 35.90472 -78.76496 816 ft 124 kts 223°
2026-05-06 21:22 35.89866 -78.77212 613 ft 117 kts 226°
2026-05-06 21:22 35.89294 -78.77912 450 ft 113 kts 224°
2026-05-06 21:22 35.88816 -78.78498 423 ft 80 kts 225°
2026-05-06 21:22 35.88517 -78.78873 422 ft 52 kts 225°
2026-05-06 21:23 35.88338 -78.79062 422 ft 12 kts 197°
2026-05-06 21:23 35.88275 -78.79062 416 ft 7 kts 161°
2026-05-06 21:23 35.88230 -78.79017 426 ft 9 kts 131°
2026-05-06 21:23 35.88210 -78.78954 420 ft 7 kts 67°
2026-05-06 21:24 35.88245 -78.78910 422 ft 7 kts 43°
2026-05-06 21:24 35.88276 -78.78866 417 ft 7 kts 73°
2026-05-06 21:24 35.88247 -78.78815 422 ft 9 kts 140°
2026-05-06 21:24 35.88210 -78.78767 420 ft 0 kts 133°